Location: Newark
(50.5930°N, 3.6720°W)
Time: 03:51:35
(UTC+00:00)

X-37B - Pass Details

Date: 22 September 2020
Orbit: 382 x 392 km, 45.0° (Epoch: 15 October)

Event Time Altitude Azimuth Distance (km) Brightness Sun altitude
Exits shadow 04:18:38 20° 178° (S) 944 2.3 -16.7°
Drops below altitude 10° 04:20:31 10° 143° (SE) 1,400 3.6 -16.5°
Sets 04:22:52 0° 127° (SE) 2,254 4.9 -16.1°
